Location: Jihlava
(49.4000°N, 15.5830°E)
Time: 10:42:02
(UTC+01:00)

ISS - Visible Passes

Search period start: 11 February 2026 00:00
Search period end: 21 February 2026 00:00
Orbit: 413 x 429 km, 51.6° (Epoch: 10 February)

Date Brightness Start Highest point End Pass type
(mag) Time Alt. Az. Time Alt. Az. Time Alt. Az.
12 Feb -1.1 06:20:58 10° SSW 06:23:33 21° SE 06:26:08 10° E visible
13 Feb -0.8 05:34:51 10° S 05:36:42 14° SE 05:38:33 10° ESE visible
14 Feb -2.7 06:22:49 10° SW 06:26:01 44° SSE 06:29:14 10° ENE visible
15 Feb -2.1 05:36:20 12° SSW 05:39:02 31° SE 05:42:02 10° E visible
16 Feb -1.7 04:51:30 20° SSE 04:52:05 21° SE 04:54:42 10° E visible
16 Feb -3.7 06:25:14 10° WSW 06:28:35 86° SSE 06:31:56 10° ENE visible
17 Feb -0.6 04:06:31 12° ESE 04:06:31 12° ESE 04:07:05 10° ESE visible
17 Feb -3.5 05:39:31 22° SW 05:41:29 65° SSE 05:44:48 10° ENE visible
18 Feb -3.0 04:54:25 46° SSE 04:54:25 46° SSE 04:57:37 10° ENE visible
19 Feb -1.0 04:09:12 18° E 04:09:12 18° E 04:10:21 10° E visible
19 Feb -3.8 05:42:11 25° W 05:43:59 75° NNW 05:47:21 10° ENE visible
20 Feb -3.8 04:56:54 83° E 04:56:54 83° E 05:00:09 10° ENE visible
